Location: Chateh
(58.6667°N, 118.6000°W)
Time: 10:02:38
(UTC+00:00)

BUGSAT 1 - Visible Passes

Search period start: 30 November 2023 00:00
Search period end: 10 December 2023 00:00
Orbit: 537 x 588 km, 98.2° (Epoch: 29 November)

Date Brightness Start Highest point End Pass type
(mag) Time Alt. Az. Time Alt. Az. Time Alt. Az.
30 Nov ? 00:53:14 18° NE 00:53:14 18° NE 00:55:48 10° N visible
30 Nov ? 02:29:13 35° NNW 02:29:13 35° NNW 02:31:33 10° NNW visible
30 Nov ? 04:05:12 11° NW 04:05:12 11° NW 04:05:27 10° NW visible
01 Dec ? 00:52:55 17° NE 00:52:55 17° NE 00:55:21 10° N visible
01 Dec ? 02:28:54 33° NNW 02:28:54 33° NNW 02:31:07 10° NNW visible
01 Dec ? 04:04:53 11° NW 04:04:53 11° NW 04:05:03 10° NW visible
02 Dec ? 00:52:36 17° NE 00:52:36 17° NE 00:54:54 10° N visible
02 Dec ? 02:28:34 31° NNW 02:28:34 31° NNW 02:30:40 10° NNW visible
02 Dec ? 04:04:33 10° NW 04:04:33 10° NW 04:04:37 10° NW visible
03 Dec ? 00:52:15 17° NE 00:52:15 17° NE 00:54:25 10° N visible
03 Dec ? 02:28:13 29° NNW 02:28:13 29° NNW 02:30:12 10° NNW visible
03 Dec ? 15:26:50 10° NNE 15:30:29 36° E 15:34:10 10° SSE visible
04 Dec ? 00:51:52 16° NE 00:51:52 16° NE 00:53:55 10° N visible
04 Dec ? 02:27:50 27° NNW 02:27:50 27° NNW 02:29:43 10° NNW visible
04 Dec ? 15:26:21 10° NNE 15:30:00 35° E 15:33:40 10° SSE visible
05 Dec ? 00:51:28 16° NE 00:51:28 16° NE 00:53:25 10° N visible
05 Dec ? 02:27:26 26° NNW 02:27:26 26° NNW 02:29:14 10° NNW visible
05 Dec ? 15:25:51 10° NNE 15:29:30 35° E 15:33:10 10° SSE visible
06 Dec ? 00:51:02 16° NE 00:51:02 16° NE 00:52:53 10° N visible
06 Dec ? 02:27:00 25° NNW 02:27:00 25° NNW 02:28:43 10° NNW visible
06 Dec ? 15:25:20 10° NNE 15:28:59 34° E 15:32:39 10° SSE visible
07 Dec ? 00:50:35 16° NE 00:50:35 16° NE 00:52:21 10° NNE visible
07 Dec ? 02:26:33 24° NNW 02:26:33 24° NNW 02:28:12 10° NNW visible
07 Dec ? 15:24:48 10° NNE 15:28:27 34° E 15:32:06 10° SSE visible
08 Dec ? 00:50:07 15° NE 00:50:07 15° NE 00:51:49 10° NNE visible
08 Dec ? 02:26:05 23° NNW 02:26:05 23° NNW 02:27:40 10° NNW visible
08 Dec ? 15:24:16 10° NNE 15:27:53 33° E 15:31:33 10° SSE visible
09 Dec ? 00:49:36 15° NE 00:49:36 15° NE 00:51:14 10° NNE visible
09 Dec ? 02:25:35 23° NNW 02:25:35 23° NNW 02:27:06 10° NNW visible
09 Dec ? 15:23:42 10° NNE 15:27:20 33° E 15:30:59 10° SSE visible
